TimeCST,TemperatureF,Dew PointF,Humidity,Sea Level PressureIn,VisibilityMPH,Wind Direction,Wind SpeedMPH,Gust SpeedMPH,PrecipitationIn,Events,Conditions,WindDirDegrees,DateUTC
12:06 AM,21.2,19.4,93,29.87,0.5,NNW,15.0,23.0,N/A,Snow,Light Snow,340,2012-11-23 06:06:00
12:26 AM,19.4,19.4,100,29.88,0.5,North,10.4,27.6,N/A,Snow,Light Snow,350,2012-11-23 06:26:00
12:46 AM,19.4,19.4,100,29.90,0.8,NNW,10.4,19.6,N/A,Snow,Light Snow,340,2012-11-23 06:46:00
1:26 AM,19.4,17.6,93,29.92,0.5,NNW,12.7,21.9,0.01,Snow,Light Snow,340,2012-11-23 07:26:00
1:46 AM,19.4,17.6,93,29.94,4.0,NNW,11.5,20.7,0.01,Snow,Light Snow,330,2012-11-23 07:46:00
2:06 AM,19.4,17.6,93,29.96,5.0,NNW,13.8,26.5,N/A,Snow,Light Snow,340,2012-11-23 08:06:00
2:26 AM,19.4,17.6,93,29.97,5.0,NNW,13.8,25.3,N/A,Snow,Light Snow,340,2012-11-23 08:26:00
2:46 AM,19.4,17.6,93,29.99,5.0,North,9.2,23.0,N/A,Snow,Light Snow,350,2012-11-23 08:46:00
3:06 AM,19.4,17.6,93,30.00,10.0,NNW,12.7,27.6,N/A,Snow,Light Snow,340,2012-11-23 09:06:00
3:26 AM,19.4,17.6,93,30.01,10.0,NNW,15.0,28.8,N/A,Snow,Light Snow,340,2012-11-23 09:26:00
3:46 AM,19.4,17.6,93,30.03,7.0,NNW,11.5,23.0,N/A,Snow,Light Snow,340,2012-11-23 09:46:00
4:06 AM,19.4,17.6,93,30.04,4.0,NNW,15.0,26.5,N/A,Snow,Light Snow,340,2012-11-23 10:06:00
4:26 AM,17.6,15.8,93,30.06,5.0,North,11.5,26.5,N/A,Snow,Light Snow,350,2012-11-23 10:26:00
4:46 AM,17.6,15.8,93,30.07,7.0,NNW,10.4,20.7,N/A,Snow,Light Snow,340,2012-11-23 10:46:00
5:06 AM,17.6,15.8,93,30.08,7.0,NNW,17.3,24.2,N/A,Snow,Light Snow,340,2012-11-23 11:06:00
5:26 AM,17.6,15.8,93,30.10,7.0,NNW,16.1,21.9,N/A,Snow,Light Snow,340,2012-11-23 11:26:00
5:46 AM,17.6,15.8,93,30.11,7.0,NNW,12.7,21.9,N/A,Snow,Light Snow,340,2012-11-23 11:46:00
6:06 AM,17.6,15.8,93,30.12,5.0,NNW,15.0,19.6,N/A,Snow,Light Snow,330,2012-11-23 12:06:00
6:26 AM,17.6,15.8,93,30.13,10.0,NNW,10.4,19.6,N/A,Snow,Light Snow,340,2012-11-23 12:26:00
6:46 AM,17.6,15.8,93,30.14,7.0,NNW,15.0,21.9,N/A,Snow,Light Snow,330,2012-11-23 12:46:00
7:06 AM,17.6,15.8,93,30.15,10.0,NNW,13.8,20.7,N/A,Snow,Light Snow,330,2012-11-23 13:06:00
7:26 AM,17.6,15.8,93,30.16,7.0,NNW,8.1,16.1,N/A,Snow,Light Snow,340,2012-11-23 13:26:00
7:46 AM,17.6,15.8,93,30.17,10.0,NW,10.4,18.4,N/A,Snow,Light Snow,320,2012-11-23 13:46:00
8:06 AM,17.6,15.8,93,30.18,10.0,NW,13.8,20.7,N/A,Snow,Light Snow,320,2012-11-23 14:06:00
8:26 AM,17.6,15.8,93,30.18,10.0,NNW,9.2,23.0,N/A,,Overcast,330,2012-11-23 14:26:00
8:46 AM,17.6,15.8,93,30.19,10.0,NNW,11.5,21.9,N/A,Snow,Light Snow,330,2012-11-23 14:46:00
9:06 AM,17.6,15.8,93,30.20,7.0,NNW,15.0,23.0,N/A,Snow,Light Snow,330,2012-11-23 15:06:00
9:26 AM,19.4,15.8,86,30.21,10.0,NNW,13.8,23.0,N/A,Snow,Light Snow,330,2012-11-23 15:26:00
9:46 AM,19.4,15.8,86,30.22,10.0,NNW,13.8,20.7,N/A,Snow,Light Snow,340,2012-11-23 15:46:00
10:06 AM,19.4,15.8,86,30.23,10.0,NNW,11.5,24.2,N/A,Snow,Light Snow,330,2012-11-23 16:06:00
10:26 AM,17.6,15.8,93,30.23,3.0,North,11.5,20.7,N/A,Snow,Light Snow,350,2012-11-23 16:26:00
10:46 AM,17.6,15.8,93,30.24,2.0,North,9.2,19.6,N/A,Snow,Light Snow,350,2012-11-23 16:46:00
11:06 AM,17.6,14.0,86,30.25,4.0,North,11.5,19.6,N/A,Snow,Light Snow,350,2012-11-23 17:06:00
11:26 AM,17.6,14.0,86,30.25,5.0,NNW,9.2,18.4,N/A,Snow,Light Snow,340,2012-11-23 17:26:00
11:45 AM,17.6,15.8,93,30.25,5.0,NNW,10.4,18.4,N/A,Snow,Light Snow,330,2012-11-23 17:45:00
12:06 PM,17.6,15.8,93,30.26,3.0,NNW,9.2,20.7,N/A,Snow,Light Snow,330,2012-11-23 18:06:00
12:26 PM,17.6,14.0,86,30.25,10.0,NNW,11.5,19.6,N/A,Snow,Light Snow,330,2012-11-23 18:26:00
12:46 PM,17.6,14.0,86,30.26,7.0,NW,11.5,19.6,N/A,Snow,Light Snow,320,2012-11-23 18:46:00
1:06 PM,17.6,14.0,86,30.26,2.0,NNW,6.9,17.3,N/A,Snow,Light Snow,330,2012-11-23 19:06:00
1:26 PM,17.6,15.8,93,30.26,1.5,NNW,8.1,-,N/A,Snow,Light Snow,330,2012-11-23 19:26:00
1:46 PM,17.6,14.0,86,30.27,1.2,NW,9.2,-,N/A,Snow,Light Snow,320,2012-11-23 19:46:00
2:06 PM,17.6,15.8,93,30.27,2.5,NW,11.5,18.4,N/A,Snow,Light Snow,320,2012-11-23 20:06:00
2:26 PM,17.6,15.8,93,30.27,2.5,NW,9.2,17.3,N/A,Snow,Light Snow,320,2012-11-23 20:26:00
2:46 PM,17.6,14.0,86,30.27,4.0,NW,4.6,-,N/A,Snow,Light Snow,320,2012-11-23 20:46:00
3:06 PM,17.6,14.0,86,30.28,2.5,NW,9.2,-,N/A,Snow,Light Snow,320,2012-11-23 21:06:00
3:26 PM,17.6,14.0,86,30.28,5.0,NW,4.6,-,N/A,Snow,Light Snow,320,2012-11-23 21:26:00
3:46 PM,17.6,14.0,86,30.29,3.0,NW,4.6,-,N/A,Snow,Light Snow,310,2012-11-23 21:46:00
4:05 PM,17.6,14.0,86,30.29,3.0,NW,9.2,-,N/A,Snow,Light Snow,320,2012-11-23 22:05:00
4:26 PM,15.8,14.0,93,30.30,1.5,NW,4.6,-,N/A,Snow,Light Snow,310,2012-11-23 22:26:00
4:46 PM,15.8,14.0,93,30.30,5.0,NW,11.5,17.3,N/A,Snow,Light Snow,320,2012-11-23 22:46:00
5:06 PM,15.8,12.2,86,30.31,10.0,NNW,11.5,17.3,N/A,Snow,Light Snow,330,2012-11-23 23:06:00
5:26 PM,15.8,12.2,86,30.31,10.0,NNW,10.4,-,N/A,Snow,Light Snow,330,2012-11-23 23:26:00
5:47 PM,15.8,12.2,86,30.31,7.0,NNW,6.9,-,N/A,Snow,Light Snow,330,2012-11-23 23:47:00
6:25 PM,15.8,12.2,86,30.32,10.0,NNW,6.9,-,N/A,,Overcast,340,2012-11-24 00:25:00
6:46 PM,15.8,12.2,86,30.32,10.0,NNW,8.1,-,N/A,,Overcast,340,2012-11-24 00:46:00
7:06 PM,15.8,10.4,79,30.32,10.0,North,6.9,-,N/A,,Overcast,350,2012-11-24 01:06:00
7:26 PM,15.8,10.4,79,30.31,10.0,North,5.8,-,N/A,,Overcast,360,2012-11-24 01:26:00
7:46 PM,14.0,10.4,86,30.31,10.0,North,8.1,-,N/A,,Overcast,350,2012-11-24 01:46:00
8:05 PM,12.2,8.6,85,30.31,10.0,NNW,5.8,-,N/A,,Scattered Clouds,340,2012-11-24 02:05:00
8:25 PM,12.2,8.6,85,30.30,10.0,North,5.8,-,N/A,,Mostly Cloudy,350,2012-11-24 02:25:00
8:45 PM,12.2,10.4,92,30.30,10.0,NNW,8.1,-,N/A,,Overcast,340,2012-11-24 02:45:00
9:05 PM,12.2,8.6,85,30.30,10.0,NNW,6.9,-,N/A,,Mostly Cloudy,330,2012-11-24 03:05:00
9:26 PM,12.2,8.6,85,30.30,10.0,NW,6.9,-,N/A,,Mostly Cloudy,320,2012-11-24 03:26:00
9:46 PM,12.2,8.6,85,30.31,10.0,NNW,3.5,-,N/A,,Scattered Clouds,340,2012-11-24 03:46:00
10:06 PM,10.4,6.8,85,30.31,10.0,Calm,Calm,-,N/A,,Scattered Clouds,0,2012-11-24 04:06:00
10:25 PM,10.4,6.8,85,30.31,10.0,Calm,Calm,-,N/A,,Mostly Cloudy,0,2012-11-24 04:25:00
10:46 PM,10.4,6.8,85,30.31,10.0,NNW,3.5,-,N/A,Snow,Light Snow,340,2012-11-24 04:46:00
11:06 PM,10.4,6.8,85,30.31,10.0,NNW,4.6,-,N/A,,Overcast,330,2012-11-24 05:06:00
11:25 PM,10.4,6.8,85,30.31,10.0,Calm,Calm,-,N/A,Snow,Light Snow,0,2012-11-24 05:25:00
11:45 PM,10.4,6.8,85,30.31,7.0,Calm,Calm,-,N/A,Snow,Light Snow,0,2012-11-24 05:45:00